User: anonymous   Login
Location: Waldport
(44.4270°N, 124.0680°W)
Time: 22:22:12
(UTC-07:00)
Language:

Cosmos 1570 Rocket - Orbit

View from above orbital plane
View from above orbital plane
View from above satellite
View from above satellite

Ground track
Ground track

The orbit data is extracted from the following two-line orbital elements,

1 15032U 84056B   17086.84888417 +.00000089 +00000-0 +40494-4 0  9996
2 15032 074.0708 224.9040 0016685 045.2748 314.9760 14.34705211714983
Epoch (UTC): 27 March 2017 20:22:23
Eccentricity: 0.0016685
inclination: 74.0708°
perigee height: 764 km
apogee height: 788 km
right ascension of ascending node: 224.9040°
argument of perigee: 45.2748°
revolutions per day: 14.34705211
mean anomaly at epoch: 314.9760°
orbit number at epoch: 71498

The dashed part of the orbit path shows where the satellite is in the earth's shadow,  

DLR